Location: Newark
(48.3983°N, 16.0611°E)
Time: 02:37:06
(UTC+00:00)

ISS - Pass Details

Date: 30 January 2020
Orbit: 415 x 422 km, 51.6° (Epoch: 27 February)

Event Time Altitude Azimuth Distance (km) Brightness Sun altitude
Rises 19:03:05 0° 291° (WNW) 2,380 1.1 -31.9°
Reaches altitude 10° 19:05:11 10° 291° (WNW) 1,512 -0.1 -32.3°
Enters shadow 19:05:16 11° 291° (WNW) 1,481 -0.2 -32.3°
